Location: ????????
(55.3939°N, 37.4780°E)
Time: 15:19:44
(UTC+00:00)

Cosmos 2151 Rocket - Pass Details

Date: 14 April 2026
Orbit: 611 x 636 km, 82.5° (Epoch: 17 May)

Event Time Altitude Azimuth Distance (km) Brightness Sun altitude
Exits shadow 21:27:46 60° 287° (WNW) 714 3.8 -24.9°
Drops below altitude 10° 21:32:07 10° 6° (N) 1,994 7.2 -24.9°
Sets 21:34:22 0° 11° (N) 2,901 8.3 -24.9°
